Flag for Ukraine Weather past 2 weeks in Kryvyi Rih, Ukraine

Now
75 °F

Passing clouds.


Feels Like: 78 °F
Forecast: 68 / 92 °F
Wind: 8 mph from Northeast

Location: Krivyy Rih / Dnipropetrovs'k

Current Time: Aug 4, 2015 at 11:07:07 PM

Latest Report: Aug 4, 2015 at 10:30 PM


Visibility: N/A

Pressure: 30.01 "Hg

Humidity: 50%

Dew point: 55 °F

Location of Kryvyi RihLocation

Historic Weather in Kryvyi Rih — Graph

°F

Kryvyi Rih temperature yesterday

Maximum temperature yesterday: 88 °F (at 4:00 PM)
Minimum temperature yesterday: 63 °F (at 4:00 AM)
Average temperature yesterday: 75 °F

Past Weeks' High & Low Weather Summary

 TemperatureHumidityPressure
High95 °F (Jul 26, 1:00 PM)100% (Jul 27, 7:00 AM)30.24 "Hg (Jul 27, 7:00 AM)
Low54 °F (Jul 22, 4:00 AM)23% (Jul 26, 1:00 PM)29.62 "Hg (Jul 26, 6:00 PM)
Average75 °F57%29.92 "Hg
* Reported Jul 20 10:00 PM — Aug 4 10:00 PM, Kryvyi Rih, Weather by CustomWeather, © 2015

Note: Actual official high and low records may vary slightly from our data, if they occured in-between our weather recording intervals... More about our weather records

Advertising

Kryvyi Rih weather history for previous 24 hours

 ConditionsComfort  
Time TempWeatherWind HumidityBarometerVisibility
10:00 PM
Tue, Aug 4
75 °FPassing clouds.8 mph50%30.01 "HgN/A
9:30 PM77 °FPassing clouds.8 mph44%30.01 "HgN/A
9:00 PM77 °FPassing clouds.8 mph44%30.01 "HgN/A
8:30 PM81 °FSunny.6 mph39%30.01 "Hg10 mi
8:00 PM81 °FPassing clouds.6 mph39%30.01 "HgN/A
7:30 PM84 °FPassing clouds.8 mph35%29.98 "HgN/A
7:00 PM84 °FPassing clouds.10 mph35%30.01 "HgN/A
6:30 PM88 °FPassing clouds.10 mph31%30.01 "HgN/A
6:00 PM88 °FPassing clouds.10 mph31%30.01 "HgN/A
5:30 PM90 °FPassing clouds.10 mph27%30.01 "HgN/A
5:00 PM90 °FPassing clouds.10 mph27%30.01 "HgN/A
4:30 PM90 °FPassing clouds.10 mph27%30.01 "HgN/A
4:00 PM90 °FPassing clouds.10 mph27%30.01 "HgN/A
3:30 PM88 °FPassing clouds.10 mph31%30.01 "HgN/A
3:00 PM88 °FPassing clouds.10 mph31%30.01 "HgN/A
2:30 PM88 °FPassing clouds.13 mph33%30.01 "HgN/A
2:00 PM88 °FPassing clouds.10 mph33%30.04 "HgN/A
1:30 PM86 °FPassing clouds.13 mph35%30.04 "HgN/A
1:00 PM86 °FPassing clouds.13 mph35%30.04 "HgN/A
12:30 PM84 °FPassing clouds.13 mph37%30.04 "HgN/A
12:00 PM84 °FPassing clouds.10 mph37%30.04 "HgN/A
11:30 AM82 °FPassing clouds.10 mph42%30.04 "HgN/A
11:00 AM82 °FPassing clouds.10 mph42%30.04 "HgN/A
10:30 AM79 °FPassing clouds.8 mph48%30.07 "HgN/A
10:00 AM79 °FPassing clouds.10 mph48%30.07 "HgN/A
9:30 AM72 °FPassing clouds.8 mph61%30.07 "HgN/A
9:00 AM72 °FPassing clouds.10 mph61%30.07 "HgN/A
8:30 AM70 °FPassing clouds.8 mph60%30.07 "HgN/A
8:00 AM70 °FPassing clouds.8 mph60%30.07 "HgN/A
7:30 AM66 °FPassing clouds.10 mph64%30.07 "HgN/A
7:00 AM66 °FPassing clouds.10 mph64%30.07 "HgN/A
6:30 AM64 °FPassing clouds.8 mph68%30.07 "HgN/A
6:00 AM64 °FPassing clouds.8 mph68%30.07 "HgN/A
5:30 AM66 °FPassing clouds.8 mph64%30.07 "HgN/A
5:00 AM66 °FPassing clouds.8 mph64%30.07 "HgN/A
4:30 AM66 °FPassing clouds.8 mph64%30.07 "HgN/A
4:00 AM66 °FPassing clouds.8 mph64%30.09 "HgN/A
3:30 AM66 °FPassing clouds.8 mph64%30.09 "HgN/A
3:00 AM66 °FPassing clouds.6 mph64%30.09 "HgN/A
2:30 AM68 °FPassing clouds.6 mph60%30.09 "HgN/A
2:00 AM68 °FPassing clouds.6 mph60%30.09 "HgN/A
1:30 AM68 °FPassing clouds.6 mph60%30.09 "HgN/A
1:00 AM68 °FPassing clouds.8 mph60%30.09 "HgN/A
12:30 AM70 °FPassing clouds.8 mph57%30.09 "HgN/A
12:00 AM70 °FPassing clouds.8 mph57%30.09 "HgN/A
11:30 PM
Mon, Aug 3
70 °FPassing clouds.8 mph57%30.09 "HgN/A
11:00 PM70 °FPassing clouds.8 mph57%30.09 "HgN/A
Weather by CustomWeather, © 2015

See weather overviewHow to use our weather pages